1495854000.43,63895,12.81,73838.0,-1.41,-2.27,-2.27,0,*55
1495854001.62,63896,12.81,73836.0,-1.41,-2.19,-2.27,0,*5B
1495854002.81,63897,12.81,73828.3,-1.41,-2.27,-2.31,0,*50
1495854004.01,63898,12.81,73820.3,-1.41,-2.19,-2.39,0,*5A
1495854005.22,63899,12.81,73818.8,-1.39,-2.35,-2.39,0,*5A
1495854006.44,63900,12.81,73844.5,-1.39,-2.35,-2.39,0,*5B
1495854007.64,63901,12.81,73842.5,-1.41,-2.31,-2.39,0,*51
1495854008.86,63902,12.81,73824.5,-1.41,-2.39,-2.51,0,*54
1495854010.05,63903,12.81,73842.0,-1.41,-2.27,-2.43,0,*59
1495854011.24,63904,12.81,73842.3,-1.41,-2.27,-2.31,0,*5B
1495854012.46,63905,12.81,73828.3,-1.43,-2.19,-2.27,0,*52
1495854013.68,63906,12.81,73820.3,-1.43,-2.19,-2.19,0,*5C
1495854014.91,63907,12.81,73834.5,-1.43,-2.15,-2.19,0,*51
1495854016.16,63908,12.81,73836.0,-1.39,-2.11,-2.15,0,*5B
1495854017.35,63909,12.81,73822.0,-1.41,-2.15,-2.27,0,*50
1495854018.53,63910,12.81,73826.8,-1.41,-2.15,-2.27,0,*58
1495854019.73,63911,12.81,73836.3,-1.41,-2.27,-2.31,0,*5F
1495854020.95,63912,12.81,73840.3,-1.39,-2.15,-2.15,0,*54
1495854022.2,63913,12.81,73854.5,-1.39,-2.11,-2.15,0,*51
1495854023.39,63914,12.81,73828.3,-1.41,-2.15,-2.27,0,*5C
1495854024.58,63915,12.81,73816.3,-1.41,-2.15,-2.27,0,*5D
1495854025.83,63916,12.81,73818.5,-1.39,-2.11,-2.23,0,*51
1495854027.03,63917,12.81,73820.3,-1.41,-2.19,-2.23,0,*57
1495854028.22,63918,12.81,73826.0,-1.41,-2.15,-2.19,0,*5D
1495854029.49,63919,12.81,73832.8,-1.39,-2.11,-2.11,0,*5F
1495854030.77,63920,12.81,73832.8,-1.39,-2.11,-2.11,0,*55
1495854032.05,63921,12.81,73824.8,-1.39,-2.07,-2.07,0,*54
1495854033.24,63922,12.81,73822.0,-1.41,-2.19,-2.23,0,*51
1495854034.46,63923,12.81,73816.5,-1.39,-2.15,-2.15,0,*56
1495854035.71,63924,12.81,73832.5,-1.39,-2.11,-2.15,0,*55
1495854036.96,63925,12.81,73834.8,-1.39,-2.11,-2.19,0,*58
1495854038.22,63926,12.81,73828.0,-1.39,-2.11,-2.23,0,*52
1495854039.47,63927,12.81,73826.0,-1.39,-2.11,-2.15,0,*56
1495854040.69,63928,12.81,73820.8,-1.39,-2.15,-2.23,0,*58
1495854041.94,63929,12.81,73824.5,-1.35,-2.11,-2.23,0,*51
1495854043.19,63930,12.81,73830.5,-1.35,-2.07,-2.19,0,*57
1495854044.46,63931,12.81,73812.3,-1.35,-2.07,-2.11,0,*5E
1495854045.71,63932,12.81,73802.8,-1.35,-2.07,-2.19,0,*55
1495854046.96,63933,12.81,73824.3,-1.35,-2.11,-2.23,0,*5A
1495854048.23,63934,12.81,73830.8,-1.31,-2.11,-2.11,0,*58
1495854049.51,63935,12.81,73818.5,-1.35,-2.11,-2.11,0,*5D
1495854050.76,63936,12.81,73824.3,-1.35,-2.11,-2.19,0,*56
1495854052.01,63937,12.81,73844.0,-1.35,-2.11,-2.23,0,*5E
1495854053.26,63938,12.81,73838.8,-1.35,-2.11,-2.19,0,*58
1495854054.48,63939,12.81,73820.5,-1.35,-2.23,-2.31,0,*52
1495854055.7,63940,12.81,73828.5,-1.35,-2.31,-2.43,0,*5A
1495854056.92,63941,12.81,73828.8,-1.35,-2.23,-2.23,0,*5E
1495854058.2,63942,12.81,73830.0,-1.35,-2.11,-2.11,0,*5D
1495854059.42,63943,12.81,73832.5,-1.35,-2.19,-2.19,0,*5C
1495854060.66,63944,12.81,73830.5,-1.39,-2.15,-2.11,0,*53
1495854061.88,63945,12.81,73834.8,-1.39,-2.15,-2.23,0,*53
1495854063.11,63946,12.81,73828.3,-1.35,-2.19,-2.31,0,*53
1495854064.33,63947,12.81,73826.8,-1.35,-2.23,-2.31,0,*5B
1495854065.58,63948,12.81,73824.8,-1.35,-2.11,-2.23,0,*56
1495854066.8,63949,12.81,73828.8,-1.35,-2.23,-2.31,0,*55
1495854068.02,63950,12.81,73832.5,-1.35,-2.23,-2.31,0,*5D
1495854069.3,63951,12.81,73828.3,-1.35,-2.67,-2.67,0,*5F
1495854070.54,63952,12.81,73826.3,-1.35,-2.35,-2.47,0,*59
1495854071.76,63953,12.81,73816.0,-1.35,-2.35,-2.43,0,*5C
1495854072.98,63954,12.81,73804.8,-1.35,-2.31,-2.31,0,*5A
1495854074.2,63955,12.81,73808.3,-1.35,-2.19,-2.23,0,*52
1495854075.43,63956,12.81,73820.8,-1.35,-2.23,-2.23,0,*58
1495854076.68,63957,12.81,73816.3,-1.35,-2.11,-2.19,0,*51
1495854077.95,63958,12.81,73836.8,-1.35,-2.11,-2.11,0,*56
1495854079.23,63959,12.81,73828.5,-1.35,-2.03,-2.07,0,*53
1495854080.48,63960,12.81,73816.3,-1.35,-2.11,-2.19,0,*55
1495854081.7,63961,12.81,73818.8,-1.35,-2.23,-2.35,0,*5B
1495854082.95,63962,12.81,73834.8,-1.35,-2.11,-2.19,0,*57
1495854084.2,63963,12.81,73838.8,-1.35,-2.11,-2.19,0,*56
1495854085.44,63964,12.81,73836.8,-1.35,-2.19,-2.11,0,*51
1495854086.66,63965,12.81,73822.3,-1.31,-2.31,-2.31,0,*5C
1495854087.91,63966,12.81,73812.5,-1.31,-2.43,-2.47,0,*5B
1495854089.13,63967,12.81,73830.0,-1.35,-2.23,-2.31,0,*59
1495854090.41,63968,12.81,73828.0,-1.35,-2.47,-2.47,0,*55
1495854091.68,63969,12.81,73832.5,-1.35,-2.55,-2.67,0,*55
1495854092.92,63970,12.81,73836.3,-1.35,-2.35,-2.47,0,*59
1495854094.14,63971,12.81,73838.8,-1.35,-2.35,-2.35,0,*5D
1495854095.39,63972,12.81,73832.8,-1.31,-2.43,-2.55,0,*5D
1495854096.66,63973,12.81,73824.5,-1.35,-2.47,-2.59,0,*50
1495854097.9,63974,12.81,73828.3,-1.35,-2.67,-2.79,0,*57
1495854099.17,63975,12.81,73824.5,-1.35,-2.47,-2.59,0,*56
1495854100.45,63976,12.81,73818.0,-1.35,-2.47,-2.47,0,*5A
1495854101.66,63977,12.81,73826.8,-1.35,-2.43,-2.43,0,*5B
1495854102.91,63978,12.81,73822.8,-1.31,-2.43,-2.47,0,*54
1495854104.15,63979,12.81,73818.8,-1.31,-2.43,-2.47,0,*55
1495854105.43,63980,12.81,73836.3,-1.35,-2.47,-2.67,0,*51
1495854106.7,63981,12.81,73824.0,-1.35,-2.47,-2.67,0,*50
1495854107.97,63982,12.81,73824.3,-1.31,-2.55,-2.59,0,*59
1495854109.24,63983,12.81,73860.3,-1.35,-2.59,-2.71,0,*5A
1495854110.48,63984,12.81,73838.3,-1.35,-2.59,-2.79,0,*55
1495854111.72,63985,12.81,73834.8,-1.31,-2.67,-2.79,0,*5D
1495854112.96,63986,12.81,73830.8,-1.31,-2.67,-2.83,0,*5B
1495854114.23,63987,12.81,73858.0,-1.35,-2.55,-2.71,0,*52
1495854115.47,63988,12.81,73834.5,-1.31,-2.71,-2.79,0,*57
1495854116.69,63989,12.81,73814.8,-1.35,-2.99,-2.83,0,*51
1495854117.93,63990,12.81,73816.0,-1.35,-2.71,-2.79,0,*5A
1495854119.15,63991,12.81,73850.3,-1.31,-3.87,-3.31,0,*5A
1495854120.4,63992,12.81,73820.5,-1.35,-5.93,-3.75,0,*5E
1495854121.63,63993,12.81,73828.3,-1.31,-4.37,-3.67,0,*57
1495854122.85,63994,12.81,73836.5,-1.31,-4.25,-4.09,0,*5C
1495854124.07,63995,12.81,73842.3,-1.31,-4.13,-3.83,0,*5D
1495854125.28,63996,12.81,73830.5,-1.31,-4.61,-4.33,0,*57
1495854126.53,63997,12.81,73838.5,-1.31,-4.21,-4.01,0,*53
1495854127.78,63998,12.81,73840.8,-1.31,-3.67,-4.21,0,*5B
1495854129.02,63999,12.81,73858.0,-1.35,-4.45,-5.11,0,*5B
1495854130.25,64000,12.81,73866.3,-1.35,-5.55,-4.65,0,*57
1495854131.47,64001,12.81,73842.8,-1.35,-5.43,-4.13,0,*50
1495854132.71,64002,12.81,73822.3,-1.35,-4.25,-3.59,0,*5B
1495854133.95,64003,12.81,73818.5,-1.35,-4.09,-3.55,0,*58
1495854135.19,64004,12.81,73824.0,-1.35,-3.59,-3.19,0,*55
1495854136.41,64005,12.81,73838.3,-1.35,-3.07,-2.91,0,*5E
1495854137.66,64006,12.81,73836.5,-1.39,-2.87,-2.71,0,*56
1495854138.91,64007,12.81,73832.8,-1.41,-2.51,-2.63,0,*50
1495854140.18,64008,12.81,73834.0,-1.35,-2.47,-2.47,0,*5D
1495854141.43,64009,12.81,73838.5,-1.41,-2.63,-2.55,0,*5A
1495854142.7,64010,12.81,73848.5,-1.39,-2.59,-2.59,0,*58
1495854143.98,64011,12.81,73842.0,-1.39,-2.51,-2.51,0,*59
1495854145.19,64012,12.81,73836.5,-1.39,-2.35,-2.27,0,*59
1495854146.39,64013,12.81,73840.0,-1.41,-2.27,-2.31,0,*53
1495854147.61,64014,12.81,73840.3,-1.39,-2.23,-2.35,0,*5B
1495854148.85,64015,12.81,73846.0,-1.39,-2.35,-2.47,0,*58
1495854150.07,64016,12.81,73844.0,-1.39,-2.35,-2.39,0,*52
1495854151.29,64017,12.81,73844.8,-1.41,-2.43,-2.55,0,*57
1495854152.49,64018,12.81,73850.0,-1.41,-2.31,-2.39,0,*57
1495854153.71,64019,12.81,73844.0,-1.39,-2.23,-2.35,0,*56
1495854154.93,64020,12.81,73842.0,-1.39,-2.27,-2.35,0,*58
1495854156.15,64021,12.81,73838.8,-1.39,-2.23,-2.39,0,*51
1495854157.36,64022,12.81,73856.3,-1.39,-2.23,-2.39,0,*52
1495854158.58,64023,12.81,73844.3,-1.39,-2.27,-2.35,0,*5B
1495854159.83,64024,12.81,73826.8,-1.39,-2.27,-2.47,0,*59
1495854161.1,64025,12.81,73816.0,-1.39,-2.47,-2.59,0,*51
1495854162.38,64026,12.81,73812.3,-1.39,-2.51,-2.63,0,*5C
1495854163.66,64027,12.81,73806.5,-1.39,-2.63,-2.71,0,*5F
1495854164.93,64028,12.81,73828.5,-1.35,-2.55,-2.67,0,*5E
1495854166.15,64029,12.81,73846.8,-1.35,-2.79,-2.95,0,*5C
1495854167.37,64030,12.81,73818.0,-1.35,-2.91,-2.99,0,*5E
1495854168.59,64031,12.81,73806.0,-1.39,-3.03,-3.15,0,*5C
1495854169.78,64032,12.81,73796.5,-1.41,-3.03,-3.03,0,*57
1495854170.97,64033,12.81,73798.0,-1.41,-2.91,-2.87,0,*51
1495854172.24,64034,12.81,73810.8,-1.39,-2.59,-2.63,0,*57
1495854173.46,64035,12.81,73818.5,-1.41,-2.75,-2.87,0,*5D
1495854174.68,64036,12.81,73814.3,-1.41,-2.75,-2.87,0,*5E
1495854175.92,64037,12.81,73820.8,-1.41,-2.67,-2.75,0,*51
1495854177.2,64038,12.81,73824.5,-1.39,-2.63,-2.75,0,*55
1495854178.42,64039,12.81,73818.8,-1.41,-2.67,-2.87,0,*52
1495854179.63,64040,12.81,73826.0,-1.41,-2.63,-2.79,0,*59
1495854180.88,64041,12.81,73826.3,-1.41,-2.55,-2.75,0,*51
1495854182.13,64042,12.81,73824.3,-1.41,-2.55,-2.75,0,*52
1495854183.4,64043,12.81,73828.0,-1.39,-2.59,-2.67,0,*53
1495854184.62,64044,12.81,73838.5,-1.41,-2.63,-2.87,0,*5C
1495854185.84,64045,12.81,73836.0,-1.41,-2.55,-2.87,0,*58
1495854187.06,64046,12.81,73862.8,-1.41,-2.75,-2.79,0,*58
1495854188.24,64047,12.81,73828.0,-1.41,-3.03,-3.15,0,*52
1495854189.46,64048,12.81,73810.5,-1.41,-3.39,-3.55,0,*50
1495854190.67,64049,12.81,73808.3,-1.39,-3.03,-3.23,0,*56
1495854191.86,64050,12.81,73806.0,-1.41,-3.07,-3.15,0,*50
1495854193.08,64051,12.81,73810.5,-1.43,-2.99,-3.07,0,*56
1495854194.3,64052,12.81,73826.8,-1.43,-2.79,-2.87,0,*52
1495854195.5,64053,12.81,73834.5,-1.45,-2.79,-2.87,0,*55
1495854196.72,64054,12.81,73830.0,-1.43,-2.87,-2.91,0,*52
1495854197.95,64055,12.81,73832.0,-1.43,-2.87,-2.99,0,*5B
1495854199.17,64056,12.81,73830.8,-1.43,-2.79,-2.91,0,*51
1495854200.39,64057,12.81,73834.3,-1.43,-2.87,-2.91,0,*51
1495854201.6,64058,12.81,73852.5,-1.43,-2.87,-2.91,0,*5E
1495854202.83,64059,12.81,73858.8,-1.43,-2.87,-3.03,0,*55
1495854204.03,64060,12.81,73866.3,-1.45,-2.95,-3.07,0,*5E
1495854205.24,64061,12.81,73826.0,-1.45,-2.95,-3.03,0,*5B
1495854206.43,64062,12.81,73814.0,-1.45,-3.03,-2.91,0,*5C
1495854207.65,64063,12.81,73796.0,-1.43,-2.99,-2.91,0,*59
1495854208.87,64064,12.81,73788.8,-1.43,-2.91,-2.79,0,*50
1495854210.09,64065,12.81,73796.5,-1.43,-2.91,-2.87,0,*50
1495854211.31,64066,12.81,73830.0,-1.43,-2.87,-2.87,0,*54
1495854212.51,64067,12.81,73814.0,-1.45,-2.95,-2.91,0,*57
1495854213.73,64068,12.81,73814.5,-1.43,-2.91,-2.79,0,*5C
1495854214.92,64069,12.81,73842.3,-1.45,-2.83,-2.79,0,*58
1495854216.2,64070,12.81,73842.5,-1.43,-2.67,-2.67,0,*53
1495854217.45,64071,12.81,73830.0,-1.45,-2.67,-2.71,0,*53
1495854218.72,64072,12.81,73832.3,-1.43,-2.67,-2.67,0,*51
1495854219.94,64073,12.81,73826.5,-1.43,-2.91,-2.87,0,*57
1495854221.16,64074,12.81,73806.3,-1.43,-3.07,-2.91,0,*59
1495854222.39,64075,12.81,73806.8,-1.43,-3.31,-3.03,0,*57
1495854223.63,64076,12.81,73838.5,-1.43,-3.67,-3.31,0,*56
1495854224.89,64077,12.81,73842.8,-1.43,-4.93,-3.51,0,*5D
1495854226.14,64078,12.81,73842.3,-1.43,-5.77,-3.79,0,*53
1495854227.37,64079,12.81,73832.5,-1.45,-5.11,-3.79,0,*54
1495854228.6,64080,12.81,73826.3,-1.45,-4.85,-3.67,0,*51
1495854229.82,64081,12.81,73814.0,-1.45,-3.95,-3.47,0,*54
1495854231.05,64082,12.81,73800.0,-1.45,-3.63,-3.79,0,*53
1495854232.28,64083,12.81,73784.5,-1.45,-3.43,-3.79,0,*50
1495854233.5,64084,12.81,73814.3,-1.45,-3.43,-3.79,0,*57
1495854234.75,64085,12.81,73838.5,-1.43,-3.51,-3.79,0,*53
1495854235.99,64086,12.81,73814.3,-1.45,-4.01,-4.49,0,*50
1495854237.19,64087,12.81,73822.0,-1.45,-4.57,-5.39,0,*54
1495854238.47,64088,12.81,73816.5,-1.47,-5.93,-6.19,0,*51
1495854239.69,64089,12.81,73844.0,-1.47,-8.21,-7.53,0,*5B
1495854240.96,64090,12.81,73830.3,-1.47,-10.97,-10.41,0,*52
1495854242.23,64091,12.81,73826.5,-1.47,-12.21,-11.59,0,*54
1495854243.47,64092,12.81,73824.8,-1.47,-12.21,-11.19,0,*53
1495854244.69,64093,12.81,73810.3,-1.47,-10.09,-9.31,0,*69
1495854245.94,64094,12.81,73806.3,-1.47,-10.23,-9.83,0,*6F
1495854247.19,64095,12.81,73838.0,-1.49,-11.07,-9.71,0,*6A
1495854248.44,64096,12.81,73830.8,-1.49,-11.19,-11.77,0,*59
1495854249.69,64097,12.81,73830.0,-1.49,-13.33,-13.47,0,*53
1495854250.94,64098,12.81,73830.8,-1.49,-12.61,-12.43,0,*5F
1495854252.22,64099,12.81,73830.5,-1.49,-11.37,-12.35,0,*5F
1495854253.47,64100,12.81,73820.8,-1.49,-9.45,-10.49,0,*6B
1495854254.72,64101,12.81,73824.5,-1.49,-7.69,-7.15,0,*55
1495854255.95,64102,12.81,73828.5,-1.51,-5.89,-5.55,0,*55
1495854257.17,64103,12.81,73818.0,-1.49,-4.65,-4.65,0,*5C
1495854258.36,64104,12.81,73814.0,-1.51,-4.05,-4.17,0,*51
1495854259.61,64105,12.81,73822.3,-1.53,-3.63,-3.87,0,*5B
1495854260.84,64106,12.81,73820.8,-1.51,-3.43,-3.67,0,*56
1495854262.04,64107,12.81,73814.5,-1.51,-3.27,-3.79,0,*5A
1495854263.27,64108,12.81,73810.0,-1.53,-3.19,-3.79,0,*5A
1495854264.51,64109,12.81,73826.5,-1.53,-3.15,-3.51,0,*5D
1495854265.73,64110,12.81,73836.0,-1.51,-3.11,-3.43,0,*50
1495854266.93,64111,12.81,73800.3,-1.51,-3.15,-3.27,0,*57
1495854268.15,64112,12.81,73808.8,-1.53,-3.15,-3.19,0,*5B
1495854269.34,64113,12.81,73814.8,-1.51,-3.03,-3.15,0,*53
1495854270.54,64114,12.81,73818.3,-1.51,-2.99,-3.03,0,*51
1495854271.73,64115,12.81,73816.8,-1.51,-2.91,-3.03,0,*58
1495854272.94,64116,12.81,73814.5,-1.51,-2.67,-2.79,0,*5E
1495854274.21,64117,12.81,73804.0,-1.53,-2.67,-2.75,0,*51
1495854275.43,64118,12.81,73806.0,-1.51,-2.67,-2.79,0,*50
1495854276.65,64119,12.81,73804.5,-1.51,-2.75,-2.79,0,*52
1495854277.87,64120,12.81,73812.5,-1.51,-2.63,-2.79,0,*5F
1495854279.14,64121,12.81,73818.5,-1.49,-2.51,-2.63,0,*5D
1495854280.41,64122,12.81,73814.8,-1.49,-2.59,-2.71,0,*55
1495854281.66,64123,12.81,73812.3,-1.51,-2.55,-2.75,0,*55
1495854282.91,64124,12.81,73804.5,-1.51,-2.51,-2.67,0,*55
1495854284.18,64125,12.81,73804.8,-1.49,-2.51,-2.63,0,*59
1495854285.45,64126,12.81,73820.5,-1.47,-2.59,-2.63,0,*5C
1495854286.73,64127,12.81,73804.3,-1.49,-2.47,-2.71,0,*5F
1495854288.0,64128,12.81,73790.8,-1.49,-2.59,-2.63,0,*5C
1495854289.27,64129,12.81,73784.8,-1.49,-2.59,-2.71,0,*5E
1495854290.54,64130,12.81,73782.0,-1.49,-2.59,-2.71,0,*56
1495854291.78,64131,12.81,73798.5,-1.47,-2.59,-2.83,0,*54
1495854293.03,64132,12.81,73826.3,-1.49,-2.75,-2.95,0,*50
1495854294.25,64133,12.81,73786.3,-1.49,-2.95,-2.99,0,*53
1495854295.53,64134,12.81,73804.3,-1.47,-3.47,-3.51,0,*51
1495854296.78,64135,12.81,73800.0,-1.49,-3.35,-4.81,0,*51
1495854298.02,64136,12.81,73800.5,-1.49,-4.13,-7.43,0,*5C
1495854299.27,64137,12.81,73786.5,-1.49,-5.31,-8.85,0,*59
1495854300.5,64138,12.81,73792.3,-1.47,-5.39,-8.97,0,*53
1495854301.72,64139,12.81,73788.3,-1.49,-6.09,-7.11,0,*5D
1495854302.99,64140,12.81,73786.3,-1.49,-5.27,-4.93,0,*55
1495854304.23,64141,12.81,73764.0,-1.49,-5.27,-3.83,0,*52
1495854305.46,64142,12.81,73816.5,-1.51,-3.91,-3.51,0,*5C
1495854306.7,64143,12.81,73798.0,-1.49,-3.59,-3.83,0,*5F
1495854307.95,64144,12.81,73798.5,-1.49,-3.71,-4.53,0,*58
1495854309.22,64145,12.81,73790.0,-1.47,-3.91,-5.27,0,*5B
1495854310.46,64146,12.81,73790.8,-1.47,-4.53,-7.31,0,*54
1495854311.7,64147,12.81,73806.5,-1.51,-5.23,-8.81,0,*50
1495854312.92,64148,12.81,73808.5,-1.51,-6.63,-10.85,0,*65
1495854314.17,64149,12.81,73788.0,-1.49,-10.79,-17.31,0,*59
1495854315.42,64150,12.81,73796.3,-1.49,-11.37,-16.41,0,*5C
1495854316.66,64151,12.81,73806.3,-1.51,-10.97,-16.23,0,*5B
1495854317.92,64152,12.81,73818.3,-1.51,-10.75,-17.11,0,*54
1495854319.13,64153,12.81,73822.8,-1.51,-12.47,-20.93,0,*58
1495854320.34,64154,12.81,73818.5,-1.51,-13.19,-20.93,0,*55
1495854321.59,64155,12.81,73818.0,-1.51,-12.83,-19.41,0,*53
1495854322.82,64156,12.81,73824.0,-1.53,-12.25,-19.07,0,*5C
1495854324.1,64157,12.81,73824.5,-1.53,-12.71,-19.31,0,*59
1495854325.36,64158,12.81,73824.8,-1.53,-11.15,-13.83,0,*54
1495854326.57,64159,12.81,73818.5,-1.55,-8.85,-12.97,0,*66
1495854327.82,64160,12.81,73818.0,-1.59,-9.15,-15.29,0,*6A
1495854329.05,64161,12.81,73820.3,-1.59,-8.21,-12.57,0,*63
1495854330.3,64162,12.81,73822.8,-1.55,-7.05,-11.97,0,*6A
1495854331.53,64163,12.81,73826.0,-1.59,-6.69,-12.15,0,*65
1495854332.74,64164,12.81,73824.3,-1.59,-6.05,-10.09,0,*67
1495854333.97,64165,12.81,73828.8,-1.59,-5.77,-10.23,0,*68
1495854335.19,64166,12.81,73836.0,-1.55,-5.89,-9.97,0,*51
1495854336.42,64167,12.81,73838.5,-1.59,-5.47,-7.99,0,*5E
1495854337.67,64168,12.81,73834.0,-1.59,-5.27,-8.11,0,*58
1495854338.87,64169,12.81,73838.5,-1.59,-5.39,-8.45,0,*57
1495854340.1,64170,12.81,73846.3,-1.59,-5.27,-6.55,0,*5F
1495854341.35,64171,12.81,73860.0,-1.55,-4.85,-5.15,0,*5C
1495854342.6,64172,12.81,73848.0,-1.55,-5.03,-4.69,0,*5A
1495854343.83,64173,12.81,73846.5,-1.55,-5.35,-4.85,0,*5C
1495854345.05,64174,12.81,73846.8,-1.55,-5.23,-5.35,0,*56
1495854346.27,64175,12.81,73844.5,-1.55,-4.85,-5.35,0,*5A
1495854347.52,64176,12.81,73848.8,-1.59,-4.73,-5.93,0,*50
1495854348.77,64177,12.81,73842.8,-1.55,-4.89,-5.93,0,*58
1495854349.96,64178,12.81,73846.3,-1.55,-4.99,-5.35,0,*5A
1495854351.21,64179,12.81,73860.0,-1.59,-4.89,-4.69,0,*5E
1495854352.45,64180,12.81,73846.3,-1.59,-5.23,-4.37,0,*52
1495854353.65,64181,12.81,73842.3,-1.59,-5.35,-4.33,0,*50
1495854354.87,64182,12.81,73846.5,-1.55,-5.11,-5.35,0,*5E
1495854356.09,64183,12.81,73844.3,-1.59,-5.77,-8.29,0,*53
1495854357.32,64184,12.81,73840.0,-1.55,-6.55,-10.71,0,*6F
1495854358.55,64185,12.81,73842.3,-1.59,-7.49,-13.97,0,*65
1495854359.79,64186,12.81,73840.8,-1.59,-8.41,-13.61,0,*68
1495854361.05,64187,12.81,73850.3,-1.55,-9.37,-14.01,0,*64
1495854362.27,64188,12.81,73842.8,-1.59,-10.19,-12.89,0,*55
1495854363.48,64189,12.81,73848.0,-1.59,-10.09,-10.35,0,*50
1495854364.7,64190,12.81,73848.3,-1.61,-9.93,-8.89,0,*56
1495854365.96,64191,12.81,73846.3,-1.61,-8.51,-6.35,0,*51
1495854367.16,64192,12.81,73840.0,-1.59,-8.67,-5.35,0,*5F
1495854368.39,64193,12.81,73838.8,-1.59,-7.65,-4.33,0,*54
1495854369.61,64194,12.81,73840.3,-1.59,-6.19,-3.83,0,*55
1495854370.88,64195,12.81,73842.0,-1.61,-5.31,-3.63,0,*58
1495854372.1,64196,12.81,73836.8,-1.61,-4.37,-3.35,0,*5F
1495854373.33,64197,12.81,73844.5,-1.61,-3.87,-3.35,0,*52
1495854374.55,64198,12.81,73840.5,-1.59,-3.67,-3.31,0,*5C
1495854375.78,64199,12.75,73830.3,-1.61,-3.39,-3.39,0,*55
1495854377.03,64200,12.81,73830.5,-1.61,-3.47,-3.75,0,*57
1495854378.29,64201,12.81,73830.0,-1.61,-3.35,-3.59,0,*5D
1495854379.48,64202,12.81,73824.5,-1.59,-3.19,-3.23,0,*56
1495854380.69,64203,12.81,73828.8,-1.59,-2.95,-3.07,0,*54
1495854381.89,64204,12.81,73834.0,-1.59,-2.83,-2.95,0,*5E
1495854383.11,64205,12.81,73834.0,-1.55,-2.71,-2.91,0,*5A
1495854384.3,64206,12.81,73820.5,-1.59,-2.83,-2.91,0,*58
1495854385.5,64207,12.81,73822.8,-1.59,-2.79,-2.91,0,*5C
1495854386.73,64208,12.81,73830.8,-1.59,-2.71,-2.83,0,*58
1495854387.95,64209,12.81,73816.5,-1.59,-2.67,-2.79,0,*5B
1495854389.14,64210,12.81,73804.3,-1.55,-2.91,-2.91,0,*50
1495854390.36,64211,12.81,73800.5,-1.59,-2.91,-2.71,0,*53
1495854391.56,64212,12.81,73808.5,-1.59,-3.03,-3.03,0,*5E
1495854392.77,64213,12.81,73810.3,-1.59,-3.03,-3.03,0,*5F
1495854393.97,64214,12.81,73816.0,-1.55,-2.95,-3.03,0,*5A
1495854395.17,64215,12.81,73800.3,-1.59,-3.03,-3.03,0,*59
1495854396.37,64216,12.81,73800.5,-1.55,-3.03,-3.07,0,*52
1495854397.57,64217,12.81,73806.8,-1.59,-3.07,-3.15,0,*58
1495854398.76,64218,12.81,73806.8,-1.59,-3.07,-3.15,0,*57
1495854399.96,64219,12.81,73804.3,-1.59,-3.15,-3.23,0,*50
1495854401.16,64220,12.81,73800.8,-1.59,-3.15,-3.19,0,*53
1495854402.38,64221,12.81,73806.0,-1.59,-3.19,-3.43,0,*51
1495854403.6,64222,12.81,73810.5,-1.59,-3.19,-3.43,0,*52
1495854404.82,64223,12.81,73796.3,-1.59,-3.19,-3.71,0,*52
1495854406.02,64224,12.81,73818.3,-1.55,-3.35,-3.91,0,*59
1495854407.25,64225,12.81,73828.0,-1.59,-3.71,-4.37,0,*5F
1495854408.49,64226,12.81,73790.5,-1.59,-4.33,-5.03,0,*5B
1495854409.71,64227,12.81,73798.5,-1.59,-4.81,-5.35,0,*56
1495854410.97,64228,12.81,73814.0,-1.59,-5.15,-5.81,0,*5A
1495854412.19,64229,12.81,73816.3,-1.59,-6.27,-8.85,0,*50
1495854413.43,64230,12.81,73808.3,-1.59,-9.27,-12.57,0,*63
1495854414.66,64231,12.81,73796.0,-1.59,-10.89,-12.83,0,*57
1495854415.89,64232,12.81,73800.0,-1.59,-9.97,-10.75,0,*68
1495854417.12,64233,12.81,73812.3,-1.61,-9.19,-9.97,0,*50
1495854418.35,64234,12.81,73838.5,-1.63,-8.07,-8.25,0,*53
1495854419.57,64235,12.81,73820.3,-1.63,-6.35,-6.23,0,*55
1495854420.83,64236,12.81,73814.3,-1.61,-6.59,-7.27,0,*5B
1495854422.05,64237,12.81,73812.8,-1.61,-6.73,-6.47,0,*55
1495854423.34,64238,12.81,73818.0,-1.61,-5.15,-5.03,0,*5A
1495854424.59,64239,12.81,73832.8,-1.61,-4.49,-5.03,0,*53
1495854425.85,64240,12.75,73824.3,-1.61,-5.07,-6.47,0,*55
1495854427.07,64241,12.81,73834.5,-1.61,-7.15,-8.85,0,*55
1495854428.33,64242,12.81,73828.8,-1.61,-8.21,-11.93,0,*61
1495854429.58,64243,12.81,73828.5,-1.61,-9.97,-13.33,0,*64
1495854430.87,64244,12.81,73824.5,-1.61,-11.51,-15.21,0,*55
1495854432.1,64245,12.81,73822.0,-1.61,-10.97,-13.93,0,*50
1495854433.37,64246,12.81,73826.5,-1.61,-10.15,-11.93,0,*5B
1495854434.63,64247,12.81,73838.3,-1.61,-9.79,-10.41,0,*66
1495854435.89,64248,12.81,73832.8,-1.61,-9.45,-9.93,0,*51
1495854437.14,64249,12.81,73838.5,-1.61,-8.37,-7.95,0,*5C
1495854438.37,64250,12.75,73832.5,-1.63,-7.77,-6.31,0,*52
1495854439.64,64251,12.81,73836.3,-1.61,-7.01,-5.19,0,*59
1495854440.9,64252,12.81,73824.3,-1.61,-5.93,-4.13,0,*58
1495854442.14,64253,12.81,73820.5,-1.61,-4.41,-3.63,0,*57
1495854443.37,64254,12.81,73820.5,-1.63,-3.51,-3.35,0,*57
1495854444.6,64255,12.81,73828.3,-1.61,-3.11,-3.27,0,*53
1495854445.8,64256,12.81,73828.8,-1.59,-2.95,-3.31,0,*51
1495854447.0,64257,12.81,73826.8,-1.59,-2.83,-3.35,0,*53
1495854448.19,64258,12.81,73840.5,-1.59,-2.83,-3.31,0,*58
1495854449.39,64259,12.81,73826.0,-1.59,-2.79,-3.35,0,*58
1495854450.6,64260,12.81,73834.3,-1.59,-2.95,-3.31,0,*54
1495854451.8,64261,12.81,73850.3,-1.59,-2.95,-3.15,0,*53
1495854453.0,64262,12.81,73832.3,-1.59,-2.91,-2.83,0,*5A
1495854454.19,64263,12.81,73832.5,-1.59,-2.91,-2.83,0,*5B
1495854455.45,64264,12.81,73836.3,-1.59,-2.71,-2.47,0,*5A
1495854456.67,64265,12.81,73842.8,-1.55,-2.67,-2.35,0,*55
1495854457.89,64266,12.81,73850.0,-1.55,-2.59,-2.35,0,*5B
1495854459.12,64267,12.81,73846.5,-1.55,-2.47,-2.35,0,*55
1495854460.32,64268,12.81,73832.5,-1.55,-2.43,-2.35,0,*5E
1495854461.52,64269,12.81,73850.3,-1.55,-2.35,-2.35,0,*5E
1495854462.72,64270,12.81,73840.8,-1.51,-2.31,-2.31,0,*52
1495854463.91,64271,12.81,73826.8,-1.51,-2.27,-2.31,0,*54
1495854465.16,64272,12.81,73840.3,-1.53,-2.39,-2.63,0,*5D
1495854466.38,64273,12.81,73834.8,-1.51,-2.51,-3.03,0,*57
1495854467.59,64274,12.81,73866.8,-1.51,-2.91,-3.67,0,*5E
1495854468.81,64275,12.81,73856.3,-1.51,-4.09,-4.69,0,*51
1495854470.07,64276,12.81,73834.0,-1.49,-7.31,-5.73,0,*59
1495854471.33,64277,12.81,73850.0,-1.49,-8.71,-7.43,0,*52
1495854472.59,64278,12.81,73828.8,-1.49,-8.03,-8.51,0,*54
1495854473.86,64279,12.81,73830.3,-1.49,-7.57,-8.03,0,*5C
1495854475.08,64280,12.81,73834.5,-1.49,-7.83,-8.21,0,*53
1495854476.33,64281,12.81,73850.0,-1.51,-7.57,-6.63,0,*5A
1495854477.6,64282,12.81,73848.8,-1.49,-9.45,-7.31,0,*5B
1495854478.84,64283,12.81,73862.5,-1.49,-10.09,-6.23,0,*68
1495854480.07,64284,12.81,73850.8,-1.49,-9.01,-5.39,0,*57
1495854481.28,64285,12.81,73836.0,-1.49,-7.53,-4.05,0,*51
1495854482.5,64286,12.81,73838.3,-1.49,-4.53,-3.11,0,*53
1495854483.74,64287,12.81,73842.8,-1.49,-3.71,-3.07,0,*52
1495854484.97,64288,12.81,73810.3,-1.49,-4.49,-3.47,0,*55
1495854486.18,64289,12.81,73808.5,-1.45,-4.69,-3.23,0,*58
1495854487.38,64290,12.81,73842.0,-1.45,-4.57,-3.07,0,*5B
1495854488.59,64291,12.81,73840.0,-1.45,-5.51,-3.03,0,*59
1495854489.81,64292,12.81,73828.5,-1.45,-5.15,-2.79,0,*56
1495854491.09,64293,12.81,73844.0,-1.43,-5.07,-2.75,0,*5E
1495854492.34,64294,12.81,73854.3,-1.43,-5.35,-2.67,0,*5B
1495854493.53,64295,12.81,73832.5,-1.45,-4.45,-2.43,0,*5C
1495854494.78,64296,12.81,73832.3,-1.43,-3.43,-2.43,0,*58
1495854496.03,64297,12.81,73824.5,-1.43,-2.63,-2.27,0,*58
1495854497.22,64298,12.81,73828.5,-1.41,-2.43,-2.19,0,*5A
1495854498.41,64299,12.81,73828.8,-1.41,-2.31,-2.19,0,*5E
1495854499.63,64300,12.81,73820.8,-1.41,-2.75,-2.27,0,*52
1495854500.83,64301,12.81,73842.8,-1.41,-2.79,-2.31,0,*58
1495854502.05,64302,12.81,73846.8,-1.41,-2.75,-2.31,0,*57
1495854503.3,64303,12.81,73850.3,-1.39,-2.63,-2.27,0,*59
1495854504.58,64304,12.81,73830.5,-1.39,-2.63,-2.47,0,*58
1495854505.85,64305,12.81,73836.5,-1.39,-2.75,-2.47,0,*5E
1495854507.1,64306,12.81,73824.8,-1.39,-3.15,-2.59,0,*55
1495854508.32,64307,12.81,73826.3,-1.41,-3.15,-2.63,0,*52